Location: The Saddle
(36.8333°N, 80.3417°W)
Time: 10:23:29
(UTC-05:00)

S-56A Canister/Altair - Pass Details

Date: 10 December 2023
Orbit: 640 x 2488 km, 38.9° (Epoch: 25 February)

Event Time Altitude Azimuth Distance (km) Brightness Sun altitude
Rises 09:33:23 0° 234° (SW) 4,151 11.3 19.3°
Reaches altitude 10° 09:36:44 10° 230° (SW) 2,903 10.6 19.7°
Maximum altitude 09:43:06 50° 156° (SSE) 1,044 9.4 20.5°
Drops below altitude 10° 09:47:49 10° 82° (E) 2,159 10.3 21.0°
Sets 09:49:59 0° 76° (ENE) 2,994 10.9 21.3°
